Content
SEND FEEDBACK

Daily
Averages
Monthly
Summary
United States of America

WILMINGTON, NORTH CAROLINA


Home > North America > United States > North Carolina
Elevation: 72 feet     Latitude: 34 16N     Longitude: 077 54W

WEATHER
 
SELECT A DAY
Number of Records: 212,260;   Date Range: 1/1/95 - 10/19/14
 
SHARE

PRINT THIS DATA

[ ← Previous Day ]
WEATHER ALMANAC - AUGUST 14, 2013
[ Next Day → ]
[ °C ]   °F
Weather ElementAverageHighLow
Temperature75 °F82 °F (12:53 pm)68 °F (10:07 pm)
Dewpoint71.2 °F75.9 °F (5:53 am)62.1 °F (6:53 pm)
Humidity88.4 %100 % (1:03 am)69 % (12:53 pm)
Barometer29.90 in30.05 in (9:53 pm)29.81 in (3:29 am)
Wind Speed9.1 mph17.3 mph (12:53 am)
Wind Gust24.2 mph (12:57 am)
Weather ElementAverage
Visibility7.6 mi
Wind DirectionS (175.5 °)

Weather ElementTotal
Precipitation4.19 in
Cooling Degree Days10 (Base 65)
Growing Degree Days25 (Base 50)
Averaged from 56 records on August 14, 2013
WEATHER CONDITIONS BREAKOUT
WIND DIRECTION BREAKOUT
WEATHER BY HOUR - AUGUST 14, 2013
[ °C ]   °F
Local TimeTemperatureDewpointHumidityBarometerVisibilityWind DirectionWind SpeedGust SpeedPrecipitationEventsConditions
12:27 AM75.2 °F73.4 °F94 %29.86 in2.0 miWest (270°)12.7 mph23.0 mph0.02 inRain-ThunderstormHeavy Thunderstorms and Rain
12:33 AM75.2 °F73.4 °F94 %29.87 in1.5 miSSW (210°)9.2 mph20.7 mph0.16 inRainRain
12:37 AM75.2 °F73.4 °F94 %29.87 in4.0 miWest (260°)4.6 mph17.3 mph0.17 inRainLight Rain
12:41 AM75.2 °F73.4 °F94 %29.86 in7.0 miWNW (290°)4.6 mph0.17 inRain-ThunderstormLight Rain
12:50 AM75.2 °F73.4 °F94 %29.86 in1.8 miWNW (290°)13.8 mph17.3 mph0.20 inRain-ThunderstormHeavy Rain
12:53 AM75.0 °F73.0 °F94 %29.86 in1.5 miWNW (290°)17.3 mph23.0 mph0.33 inRain-ThunderstormHeavy Rain
12:57 AM75.2 °F73.4 °F94 %29.85 in1.2 miWNW (290°)16.1 mph24.2 mph0.04 inRain-ThunderstormHeavy Thunderstorms and Rain
1:00 AM73.4 °F71.6 °F94 %29.85 in1.8 miWest (280°)13.8 mph24.2 mph0.08 inRain-ThunderstormHeavy Thunderstorms and Rain
1:03 AM73.4 °F73.4 °F100 %29.85 in2.5 miWest (270°)11.5 mph24.2 mph0.09 inRain-ThunderstormThunderstorms and Rain
1:13 AM75.2 °F73.4 °F94 %29.86 in1.2 miWest (280°)13.8 mph18.4 mph0.21 inRain-ThunderstormHeavy Thunderstorms and Rain
1:15 AM73.4 °F73.4 °F100 %29.86 in1.5 miWNW (290°)12.7 mph0.29 inRain-ThunderstormHeavy Rain
1:23 AM73.4 °F73.4 °F100 %29.86 in2.0 miWNW (300°)12.7 mph0.37 inRain-ThunderstormHeavy Thunderstorms and Rain
1:26 AM73.4 °F73.4 °F100 %29.86 in1.8 miNW (310°)12.7 mph0.40 inRain-ThunderstormHeavy Thunderstorms and Rain
1:36 AM73.4 °F73.4 °F100 %29.85 in3.0 miNNW (330°)12.7 mph0.50 inRain-ThunderstormLight Rain
1:48 AM75.2 °F73.4 °F94 %29.84 in5.0 miNNW (340°)9.2 mph0.57 inRainLight Rain
1:53 AM75.0 °F73.0 °F94 %29.84 in10.0 miNNW (330°)5.8 mph0.57 inRainLight Rain
2:06 AM75.2 °F73.4 °F94 %29.84 in10.0 miNW (320°)4.6 mph0.00 inThunderstormOvercast
2:34 AM75.2 °F73.4 °F94 %29.83 in10.0 miCalm0.00 inRainLight Rain
2:53 AM75.9 °F73.9 °F94 %29.83 in10.0 miSW (220°)3.5 mph0.00 inRainLight Rain
3:03 AM75.2 °F73.4 °F94 %29.82 in9.0 miSW (220°)3.5 mph0.00 inRainLight Rain
3:14 AM75.2 °F73.4 °F94 %29.82 in10.0 miSW (230°)4.6 mph0.00 inThunderstormMostly Cloudy
3:29 AM75.2 °F73.4 °F94 %29.81 in10.0 miWSW (250°)6.9 mph0.00 inScattered Clouds
3:53 AM77.0 °F75.0 °F94 %29.82 in10.0 miWSW (240°)4.6 mph0.00 inPartly Cloudy
4:53 AM77.0 °F75.0 °F94 %29.83 in10.0 miSW (230°)4.6 mphClear
5:00 AM77.0 °F75.2 °F94 %29.83 in9.0 miSW (230°)4.6 mphScattered Clouds
5:09 AM77.0 °F75.2 °F94 %29.83 in9.0 miWest (260°)4.6 mphMostly Cloudy
5:53 AM77.0 °F75.9 °F96 %29.85 in8.0 miWest (260°)9.2 mphOvercast
6:09 AM77.0 °F75.2 °F94 %29.85 in6.0 miWest (270°)6.9 mphOvercast
6:39 AM75.2 °F75.2 °F100 %29.87 in7.0 miWest (270°)6.9 mphScattered Clouds
6:53 AM77.0 °F75.0 °F94 %29.87 in6.0 miWest (260°)4.6 mphScattered Clouds
7:53 AM77.0 °F75.0 °F94 %29.89 in9.0 miWest (280°)8.1 mphMostly Cloudy
8:53 AM75.9 °F73.0 °F91 %29.90 in10.0 miNW (320°)6.9 mphMostly Cloudy
9:53 AM77.0 °F73.0 °F88 %29.92 in10.0 miNorth (360°)5.8 mphPartly Cloudy
10:09 AM77.0 °F73.4 °F89 %29.92 in10.0 miNorth (10°)10.4 mphMostly Cloudy
10:53 AM78.1 °F73.0 °F84 %29.94 in10.0 miNorth (360°)6.9 mphMostly Cloudy
11:36 AM80.6 °F73.4 °F79 %29.94 in10.0 miNorth (10°)9.2 mphMostly Cloudy
11:53 AM80.1 °F72.0 °F76 %29.94 in10.0 miNNE (20°)9.2 mphMostly Cloudy
12:41 PM80.6 °F71.6 °F74 %29.94 in10.0 miNE (50°)9.2 mphMostly Cloudy
12:53 PM82.0 °F71.1 °F69 %29.94 in10.0 miNNE (20°)9.2 mphMostly Cloudy
1:53 PM82.0 °F73.0 °F74 %29.94 in10.0 miNE (40°)9.2 mphMostly Cloudy
2:10 PM80.6 °F71.6 °F74 %29.94 in10.0 miCalmOvercast
2:53 PM77.0 °F73.0 °F88 %29.94 in8.0 miENE (70°)8.1 mph0.00 inRainLight Rain
3:53 PM75.0 °F71.1 °F87 %29.95 in8.0 miNNE (20°)12.7 mph0.02 inRainLight Rain
4:53 PM73.9 °F68.0 °F82 %29.95 in10.0 miNNE (30°)17.3 mph0.00 inOvercast
5:53 PM73.0 °F66.0 °F79 %29.97 in10.0 miNNE (20°)11.5 mphOvercast
6:10 PM73.4 °F66.2 °F78 %29.96 in10.0 miNNE (30°)13.8 mphScattered Clouds
6:44 PM71.6 °F62.6 °F73 %29.98 in10.0 miNNE (20°)13.8 mphMostly Cloudy
6:53 PM71.1 °F62.1 °F73 %29.99 in10.0 miNNE (30°)15.0 mphOvercast
7:25 PM71.6 °F62.6 °F73 %29.99 in10.0 miNNE (20°)11.5 mphOvercast
7:53 PM70.0 °F63.0 °F78 %29.99 in10.0 miNE (40°)11.5 mphMostly Cloudy
8:15 PM69.8 °F64.4 °F83 %30.00 in10.0 miNNE (20°)9.2 mph0.00 inMostly Cloudy
8:53 PM69.1 °F64.0 °F84 %30.02 in10.0 miNNE (20°)11.5 mph0.00 inRainLight Rain
9:53 PM69.1 °F62.1 °F78 %30.05 in10.0 miNE (40°)8.1 mph0.00 inRainLight Rain
10:07 PM68.0 °F62.6 °F83 %30.05 in10.0 miNE (40°)9.2 mph0.00 inRainLight Rain
10:53 PM69.1 °F63.0 °F81 %30.05 in10.0 miNNE (30°)9.2 mph0.00 inOvercast
11:53 PM68.0 °F62.1 °F81 %30.04 in10.0 miNE (40°)10.4 mph0.00 inRainLight Rain
Hourly data recorded from KILM, located miles away from Wilmington, North Carolina







STORIES FROM OUR PARTNERS